Notices

What's New in latest Release from April 7th, 2021:

- Updated Glossary, including Speed of Maximum Gust, and Total Hourly Precipitation

- Updated national and regional climate services offices contacts and prices information

- Addition of station inventory lists for 1981-2010, 1971-2000, and 1961-1990 Normals.

If you haven't already, please take our survey and provide feedback about our website: https://eccc.sondage-survey.ca/f/LanguageSelection.aspx?s=442ca660-fcf1-47c0-95a9-59707d6fd709

Hourly Data Report for April 17, 2021

OTTAWA INTL A
ONTARIO
Current Station Operator: NAVCAN

45°19'00.000" N
75°40'00.000" W
114.90 m
6106001
71628
YOW

Download Data

Hourly Data (April 2021)
Hourly Data Report for April 17, 2021
TIME
LST
Temp Definition
°C
Dew Point Definition
°C
Rel Hum Definition
%
Precip. Amount Definition
mm

Wind Dir Definition
10's deg

Wind Spd Definition
km/h
Visibility Definition
km
Stn Press Definition
kPa
Hmdx Definition


Wind Chill Definition


Weather Definition


00:00 4.0 1.8 85   7 5 24.1 99.63     LegendNANA
01:00 3.9 1.9 87   30 3 24.1 99.60     Mostly Cloudy
02:00 3.8 2.4 91   29 10 24.1 99.56     LegendNANA
03:00 4.2 2.5 89   32 9 24.1 99.59     LegendNANA
04:00 4.1 2.8 91   31 9 24.1 99.59     Mostly Cloudy
05:00 3.8 2.7 92   32 13 24.1 99.61     LegendNANA
06:00 3.9 2.6 92   32 8 24.1 99.61     LegendNANA
07:00 5.7 3.5 86   33 10 24.1 99.61     Mostly Cloudy
08:00 6.7 2.5 75   7 5 24.1 99.62     LegendNANA
09:00 7.3 2.6 72   36 2 24.1 99.65     LegendNANA
10:00 8.1 2.1 66   6 3 24.1 99.63     Mostly Cloudy
11:00 8.5 2.0 63   22 7 24.1 99.59     LegendNANA
12:00 9.5 1.5 57   13 5 24.1 99.59     LegendNANA
13:00 10.8 0.7 49   23 4 24.1 99.54     Mostly Cloudy
14:00 11.6 0.5 46   21 4 24.1 99.53     LegendNANA
15:00 11.9 0.3 45   19 8 24.1 99.47     LegendNANA
16:00 11.8 1.2 48   23 4 24.1 99.47     Mostly Cloudy
17:00 12.1 1.6 49   18 9 24.1 99.46     LegendNANA
18:00 11.2 1.7 52   20 14 24.1 99.48     LegendNANA
19:00 9.7 1.8 58   20 16 24.1 99.49     Mostly Cloudy
20:00 8.4 2.9 68   19 12 24.1 99.52     LegendNANA
21:00 8.2 3.3 71   20 12 24.1 99.51     LegendNANA
22:00 7.5 3.5 75   18 9 24.1 99.49     Mostly Cloudy
23:00 6.8 3.8 81   20 9 24.1 99.47     LegendNANA

Notes on Data Quality.

Legend

  • E = Estimated
  • M = Missing
  • NA = Not Available*
  • [empty] = Indicates an unobserved value
Date modified: